Flag for U.S.A. Weather past 2 weeks in Simi Valley, California, U.S.A.

Now
54 °F

Sunny.


Feels Like: 54 °F
Forecast: 51 / 72 °F
Wind: 3 mph from Northeast

Location: Van Nuys Airport

Current Time: Dec 21, 2014 at 8:52:20 AM

Latest Report: Dec 21, 2014 at 7:51 AM


Visibility: 7 mi

Pressure: 30.13 "Hg

Humidity: 74%

Dew point: 46 °F

Location of Simi ValleyLocation

Historic Weather in Simi Valley — Graph

°F

Simi Valley temperature yesterday

Maximum temperature yesterday: 64 °F (at 1:51 PM)
Minimum temperature yesterday: 47 °F (at 3:51 AM)
Average temperature yesterday: 54 °F

Past Weeks' High & Low Weather Summary

 TemperatureHumidityPressure
High80 °F (Dec 9, 12:51 PM)93% (Dec 11, 10:51 PM)30.23 "Hg (Dec 11, 10:51 PM)
Low41 °F (Dec 14, 6:51 AM)21% (Dec 9, 11:51 AM)29.79 "Hg (Dec 12, 2:58 AM)
Average57 °F69%30.05 "Hg
* Reported Dec 6 6:51 AM — Dec 21 6:51 AM, Simi Valley, Weather by CustomWeather, © 2014

Note: Actual official high and low records may vary slightly from our data, if they occured in-between our weather recording intervals... More about our weather records

Advertising

Simi Valley weather history for previous 24 hours

 ConditionsComfort  
Time TempWeatherWind HumidityBarometerVisibility
6:51 AM
Dec 21
61 °FClear.7 mph54%30.11 "Hg10 mi
5:51 AM60 °FClear.7 mph56%30.11 "Hg10 mi
4:51 AM52 °FClear.3 mph80%30.10 "Hg7 mi
3:51 AM53 °FClear.No wind80%30.09 "Hg6 mi
2:51 AM50 °FFog.3 mph86%30.12 "Hg5 mi
1:51 AM51 °FFog.No wind86%30.12 "Hg6 mi
12:51 AM50 °FFog.No wind86%30.13 "Hg6 mi
11:51 PM
Dec 20
52 °FClear.No wind83%30.15 "Hg6 mi
10:51 PM54 °FClear.No wind77%30.14 "Hg8 mi
9:51 PM54 °FClear.No wind80%30.14 "Hg7 mi
8:51 PM56 °FClear.3 mph75%30.14 "Hg8 mi
7:51 PM56 °FClear.No wind84%30.12 "Hg9 mi
6:51 PM57 °FClear.3 mph78%30.14 "Hg10 mi
5:51 PM58 °FClear.5 mph78%30.11 "Hg10 mi
4:51 PM59 °FClear.3 mph78%30.12 "Hg10 mi
3:51 PM60 °FSunny.7 mph75%30.09 "Hg10 mi
2:51 PM62 °FSunny.6 mph67%30.10 "Hg10 mi
1:51 PM64 °FPartly sunny.3 mph61%30.10 "Hg10 mi
12:51 PM62 °FSunny.No wind62%30.12 "Hg10 mi
11:51 AM60 °FSunny.5 mph69%30.15 "Hg10 mi
10:51 AM57 °FSunny.No wind74%30.17 "Hg10 mi
9:51 AM55 °FSunny.No wind80%30.18 "Hg10 mi
8:51 AM51 °FSunny.No wind83%30.18 "Hg10 mi
Weather by CustomWeather, © 2014

See weather overviewHow to use our weather pages